Nellis AFB, NV

5:24 AM PST on December 16, 2019 (GMT -0800)
Nellis Air Force Base

Weather History for KLSV - October, 2019

Change the Weather History Date:

Tuesday, October 22, 2019

  Actual Average Record
Temperature  
Mean Temperature 68 °F -  
Max Temperature 83 °F 75 °F 93 °F (2003)
Min Temperature 54 °F 51 °F 33 °F (1996)
Cooling Degree Days 2    
Growing Degree Days 18 (Base 50)    
Moisture  
Dew Point 23 °F    
Average Humidity 20    
Maximum Humidity 29    
Minimum Humidity 13    
Precipitation  
Precipitation 0.00 in - - ()
Sea Level Pressure  
Sea Level Pressure 30.12 in    
Wind  
Wind Speed 2 mph (NNE)    
Max Wind Speed 10 mph    
Max Gust Speed 20 mph    
Visibility 10 miles    
Events      
Averages and records for this station are not official NWS values.
T = Trace of Precipitation, MM = Missing Value Source: NWS Daily Summary

Daily Weather History Graph

Daily Weather History Graph

Search for Another Location

Airport or City:

Astronomy

Oct. 22, 2019 Rise Set
Actual Time 6:53 AM PDT 5:55 PM PDT
Civil Twilight 6:27 AM PDT 6:21 PM PDT
Nautical Twilight 5:57 AM PDT 6:51 PM PDT
Astronomical Twilight 5:27 AM PDT 7:21 PM PDT
Moon 12:22 AM PDT (10/22) 2:54 PM PDT (10/22)
Length of Visible Light 11h 54m
Length of Day
11h 01m
Last Quarter, 36% of the Moon is Illuminated
Oct 22
Last Quarter
Oct 27
New
Nov 4
First Quarter
Nov 12
Full
Nov 19
Last Quarter

Hourly Weather History & Observations

Time (PDT) Temp. Dew Point Humidity Pressure Visibility Wind Dir Wind Speed Gust Speed Precip Events Conditions
12:55 AM 56.8 °F 18.3 °F 22% 30.17 in 10.0 mi Calm Calm - N/A   Clear
1:55 AM 57.4 °F 21.9 °F 25% 30.18 in 10.0 mi Calm Calm - N/A   Clear
2:52 AM 57.0 °F 20.5 °F 24% 30.17 in 10.0 mi Calm Calm - N/A   Clear
2:55 AM 57.0 °F 20.5 °F 24% 30.17 in 10.0 mi Calm Calm - N/A   Clear
3:55 AM 54.7 °F 21.4 °F 27% 30.17 in 10.0 mi South 9.2 mph - N/A   Clear
4:55 AM 54.3 °F 21.9 °F 28% 30.19 in 10.0 mi NNE 4.6 mph - N/A   Clear
5:55 AM 55.8 °F 23.2 °F 28% 30.20 in 10.0 mi Calm Calm - N/A   Clear
6:55 AM 54.9 °F 23.2 °F 29% 30.21 in 10.0 mi Calm Calm - N/A   Clear
7:58 AM 57.4 °F 22.8 °F 26% 30.23 in 10.0 mi West 4.6 mph - N/A   Clear
8:58 AM 62.4 °F 24.1 °F 23% 30.25 in 10.0 mi Calm Calm - N/A   Clear
9:58 AM 71.8 °F 24.6 °F 17% 30.21 in 10.0 mi Variable 3.5 mph - N/A   Clear
10:58 AM 73.0 °F 25.7 °F 17% 30.23 in 10.0 mi Calm Calm - N/A   Clear
11:58 AM 76.8 °F 23.9 °F 14% 30.21 in 10.0 mi NNE 10.4 mph 19.6 mph N/A   Clear
12:58 PM 78.4 °F 25.3 °F 14% 30.12 in 10.0 mi NE 10.4 mph - N/A   Clear
1:58 PM 79.9 °F 24.6 °F 13% 30.08 in 10.0 mi SE 4.6 mph - N/A   Clear
2:58 PM 81.0 °F 25.5 °F 13% 30.06 in 10.0 mi South 3.5 mph - N/A   Clear
3:58 PM 81.5 °F 25.9 °F 13% 30.04 in 10.0 mi Calm Calm - N/A   Clear
4:58 PM 81.3 °F 25.7 °F 13% 30.02 in 10.0 mi Calm Calm - N/A   Clear
5:58 PM 79.2 °F 25.9 °F 14% 30.01 in 10.0 mi Calm Calm - N/A   Clear
6:58 PM 73.4 °F 24.4 °F 16% 30.02 in 10.0 mi NNW 4.6 mph - N/A   Clear
7:58 PM 68.4 °F 23.2 °F 18% 30.02 in 10.0 mi NNE 4.6 mph - N/A   Clear
8:58 PM 66.2 °F 23.9 °F 20% 30.02 in 10.0 mi North 5.8 mph - N/A   Clear
9:58 PM 61.2 °F 21.9 °F 22% 30.01 in 10.0 mi Calm Calm - N/A   Clear
10:58 PM 60.6 °F 22.6 °F 23% 30.01 in 10.0 mi Calm Calm - N/A   Clear
11:58 PM 58.5 °F 20.8 °F 23% 30.01 in 10.0 mi NNE 3.5 mph - N/A   Clear